sat.trackr.live / text

‹ back to catalog

GPS BIIF-6 (PRN 06)

NORAD 39741 · 2014-026A

PAYLOAD ACTIVE UNKNOWN

§ Identity

Operator
Country
US
Launch date
2014-05-17
Launch site
AFETR
Launch vehicle
Mass (kg)
RCS (m²)
20.52

Purposes: earth_obs, nav

External: N2YO · Heavens-Above · Gunter

§ Orbital elements

Epoch: 2026-05-25T00:38:27.570336Z

Period
717.98 min
Inclination
56.5094°
Eccentricity
0.0038427
Mean motion
2.00562731 rev/d
Perigee alt
20,080.2 km
Apogee alt
20,284.4 km
Semi-major
26,560.4 km
B*
0.0000e+0
RAAN
332.4188°
Arg perigee
326.8937°
Mean anomaly
32.8784°
Rev number
8,807

§ Raw data

GPS BIIF-6  (PRN 06)1 39741U 14026A   26145.02670799 -.00000084  00000+0  00000+0 0  99962 39741  56.5094 332.4188 0038427 326.8937  32.8784  2.00562731 88077

JSON: /api/v1/satellites/39741 · /tle

For live sub-satellite position, see the globe view (requires WebGL).

§ Visibility from observer

Set your observer location to see the next 7 days of passes ≥ 10°. The values pass through the URL so the page stays shareable.

No JS? Fill the form by hand. The geolocation button needs JavaScript.